Volver al catálogo

STARLINK-35526

ActivoComunicacionesVLEO
NORAD 65931·PAYLOAD·🇺🇸 United States

Lanzado Oct 8, 2025 desde Vandenberg Space Force Base

Loading…

Próximos Pases (próximas 24 horas)

TLE

ActualizadoSource: CelesTrak SupGP

Época: Sep 15, 2026, 02:55 UTC

1 65931C 25225X   26258.12201389  .00066608  00000+0  19672-2 0  2589
2 65931  53.1609   4.7401 0001113  84.2850 352.6990 15.34368798    18

Sigue STARLINK-35526 en tiempo real con AllMySat

Download on the App Store